Regional Weather Roundup
Issued by NWS

Home | Current Version | Previous Version | Graphics & Text | Print | Product List | Glossary On
Versions: 1 2 3 4 5 6 7 8 9 10 11 12 13 14 15 16 17 18 19 20 21 22 23 24 25 26 27 28 29 30 31 32 33 34 35 36 37 38 39 40 41 42 43 44 45 46 47 48 49 50
000
ASUS45 KSLC 242310
RWRUT

UTAH REGIONAL WEATHER ROUNDUP
NATIONAL WEATHER SERVICE SALT LAKE CITY UT
500 PM MDT THU JUL 24 2014

UTZ001>011-023>025-250000-

NORTHERN UTAH

CITY           SKY/WX    TMP DP  RH WIND       PRES   REMARKS
HILL AFB       SUNNY     92  34  12 NW8       30.03F
LOGAN          SUNNY     92  41  17 N14       30.01F
OGDEN          SUNNY     94  32  11 NW9       30.00F
PROVO AIRPORT  MOSUNNY   91  55  29 NW14      29.98F
SALT LAKE CITY MOSUNNY   93  34  12 NW12G21   29.98F
VERNAL         PTSUNNY   86  49  27 S8        30.07F
WENDOVER       SUNNY     93  32  11 S7        29.98F
HEBER CITY     MOSUNNY   88  36  15 SW6G22    30.05F
WEST JORDAN    SUNNY     91  48  22 NW14      30.02F

$$

UTZ012>022-026-027-250000-

SOUTHERN UTAH

CITY           SKY/WX    TMP DP  RH WIND       PRES   REMARKS
BRYCE CANYON   PTSUNNY   83  36  18 SW9       30.29F
CEDAR CITY     SUNNY     95  32  11 S13       30.08F HX  90
MILFORD        SUNNY     99  27   8 SW21G35   30.01F HX  92
MOAB/CYNLANDS  SUNNY     94  41  16 SE5       30.01F HX  90
PRICE          MOSUNNY   90  45  21 SW10      30.12F
ST GEORGE      PTCLDY   106  43  11 SW8       29.86F HX 101

$$

REGIONAL REPORTS     COLORADO/ARIZONA

CITY           SKY/WX    TMP DP  RH WIND       PRES   REMARKS
CRAIG, CO      MOSUNNY   78  50  37 SW16G24   30.15F
GRAND JUNCTION PTSUNNY   92  45  19 W5        30.05F
RIFLE          PTSUNNY   86  50  28 SE10      30.12F
MONTROSE       CLOUDY    73  56  54 SE28      30.24S THUNDER
CORTEZ         MOSUNNY   87  47  24 SW7       30.17F
PAGE, AZ       MOSUNNY   99  42  14 N6        30.00F HX  94
GRAND CANYON   CLOUDY    83  43  24 S9        30.25F
KINGMAN        MOSUNNY  103  45  14 SW14G22   29.93F HX  99
FLAGSTAFF      CLOUDY    74  52  46 N7        30.31S

$$

REGIONAL REPORTS    NEVADA/IDAHO/WYOMING

CITY           SKY/WX    TMP DP  RH WIND       PRES   REMARKS
LAS VEGAS, NV  MOSUNNY  111  33   7 SW17G25   29.74F HX 103
ELY            SUNNY     92  15   6 SW14G26   30.11F
ELKO           SUNNY     88  23   9 NW12G21   30.08F
POCATELLO, ID  SUNNY     79  37  22 SW23G31   30.11F
BURLEY         SUNNY     73  41  31 W10G20    30.11F
EVANSTON, WY   MOSUNNY   85  38  18 W21G31    30.20F
ROCK SPRINGS   MOSUNNY   87  31  13 W22G35    30.13F

$$


USA.gov is the U.S. government's official web portal to all federal, state and local government web resources and services.